Location: G�kdere
(37.0328°N, 30.9000°E)
Time: 02:28:51
(UTC+00:00)

ASTEX 1 - Pass Details

Date: 03 March 2021
Orbit: 721 x 742 km, 92.7° (Epoch: 22 April)

Event Time Altitude Azimuth Distance (km) Brightness Sun altitude
Rises 17:43:29 0° 7° (N) 3,143 6.7 -22.9°
Reaches altitude 10° 17:45:48 10° 10° (N) 2,216 5.9 -23.3°
Enters shadow 17:50:35 73° 84° (E) 756 3.2 -24.3°
